Regional Weather Roundup
Issued by NWS Green Bay, WI

Home | Current Version | Previous Version | Text Only | Print | Product List | Glossary On
Versions: 1 2 3 4 5 6 7 8 9 10 11 12 13 14 15 16 17 18 19 20 21 22 23 24 25 26 27 28 29 30 31 32 33 34 35 36 37 38 39 40 41 42 43 44 45 46 47 48 49 50
000
ASUS43 KGRB 210611
RWRGRB

NORTH-CENTRAL AND NORTHEAST WISCONSIN REGIONAL WEATHER ROUNDUP
NATIONAL WEATHER SERVICE GREEN BAY WI
1200 AM CST TUE NOV 21 2017

WIZ005-009-010>012-018-019-210700-
NORTH CENTRAL WISCONSIN

CITY           SKY/WX    TMP DP  RH WIND       PRES   REMARKS
IRONWOOD       CLOUDY    39  28  64 W17G24    29.30S
MANITOWISH WTR PTCLDY    36  29  75 SW12      29.31F
ARBOR VITAE    CLOUDY    39  29  67 SW12G18   29.31F
EAGLE RIVER    CLOUDY    37  28  68 W12       29.31S
LAND O LAKES   CLOUDY    39  29  67 W9G16     29.31S
RHINELANDER    CLOUDY    38  29  70 W10       29.35S
PHILLIPS       CLOUDY    37  28  72 SW9       29.35F
ANTIGO         CLEAR     38  29  69 SW12      29.38F
TOMAHAWK       CLOUDY    40  27  61 W7        29.38S
MERRILL        CLOUDY    40  29  64 W10G16    29.40S
$$

WIZ013-073-210700-
NORTHEAST WISCONSIN

CITY           SKY/WX    TMP DP  RH WIND       PRES   REMARKS
IRON MOUNTAIN  CLOUDY    42  28  57 SW13G22   29.31S
MARINETTE      CLEAR     46  31  55 SW13      29.39R
OCONTO         CLEAR     45  31  57 SW8       29.41R
$$

WIZ017-030-035>037-045-210700-
CENTRAL WISCONSIN

CITY           SKY/WX    TMP DP  RH WIND       PRES   REMARKS
MEDFORD        CLOUDY    38  28  66 SW12G17   29.41R
WAUSAU         CLEAR     41  28  60 SW12      29.41S
MOSINEE        CLEAR     41  30  65 SW15      29.44S
MARSHFIELD     CLEAR     40  27  59 SW12      29.43F
WISC RAPIDS    CLEAR     45  28  51 W10       29.47F
STEVENS POINT  CLEAR     43  27  54 SW10      29.45S
WAUPACA        CLEAR     48  30  48 SW13G18   29.46R
SHAWANO        CLEAR     48  31  50 SW12      29.41F
CLINTONVILLE   CLEAR     46  28  49 SW12      29.43S
WAUTOMA        CLEAR     47  29  49 SW10      29.48
$$

WIZ038-039-048-051-210700-
FOX VALLEY

CITY           SKY/WX    TMP DP  RH WIND       PRES   REMARKS
NWS GREEN BAY  CLEAR     44  34  67 SW10      29.44R
APPLETON       CLEAR     45  28  53 SW15      29.45R
OSHKOSH        CLEAR     45  32  60 SW14      29.47S
FOND DU LAC    CLEAR     46  31  55 SW16G24   29.49F
$$

WIZ022-050-052-210700-
EAST CENTRAL WISCONSIN

CITY           SKY/WX    TMP DP  RH WIND       PRES   REMARKS
EPHRAIM        FAIR      47  32  55 SW17G28   29.37F
WASHINGTON ISL NOT AVBL
STURGEON BAY   CLEAR     47  33  58 SW18G24   29.41R
MANITOWOC      CLEAR     50  31  48 SW21G32   29.46
SHEBOYGAN      CLOUDY    49  32  52 SW22G32   29.49F
$$

LMZ563-521-522-541>543-210700-
LAKESHORE

STATION/POSITION TIME  TEMP    WIND        PRES    VSBY  WAVE
                       AIR SEA DIR/SP/G                  HT/PER
                 (UTC) (F)     (DEG/KT/KT) (MB)    (MI)  (FT/S)
SHEBOYGAN LKSHOR 0600   50     230/ 18/ 20  998.8F
KEWAUNEE LKSHORE 0542   50     220/ 13/ 21  996.4F
NORTHPORT PIER   0540   50     220/ 11/ 24  994.9R
N MID LAKE BUOY  0550   49 48  200/ 27/ 33  994.6F        11/ 8
SISTER BAY LKSHO 0519   50     230/ 23/ 30   N/A
MENOMINEE LKSHOR 0542   46     200/ 12/ 17  995.2R
$$



USA.gov is the U.S. government's official web portal to all federal, state and local government web resources and services.